When you browse on this site, cookies collect data to enhance your experience and personalize the content and advertising you see.
Visit our Privacy Policy to learn more. By continuing to use the site, you agree to this use of cookies and data.
  • In Lithuania
  • List of Countries
  • For 7 days
  • Water Temperature
  • Satellite Maps
  • Weather Map
  • Weather Widgets
  • user-avatar
    Login

    Hourly Weather Korçe

    Today, 19 November, Monday

    Time Temperature Precipitation Wind Pressure Humidity
    00:00 +3°C° 0.1 mm 1 mps 660 mmHg 92%
    01:00 +2°C° 0.1 mm 0 mps 660 mmHg 91%
    02:00 +3°C° 0 mm 1 mps 660 mmHg 91%
    03:00 +3°C° 0 mm 1 mps 660 mmHg 90%
    04:00 +3°C° 0 mm 1 mps 660 mmHg 90%
    05:00 +3°C° 0 mm 1 mps 661 mmHg 90%
    06:00 +3°C° 0 mm 1 mps 661 mmHg 90%
    07:00 +3°C° 0 mm 1 mps 661 mmHg 90%
    08:00 +4°C° 0 mm 1 mps 662 mmHg 88%
    09:00 +5°C° 0 mm 1 mps 662 mmHg 86%
    10:00 +6°C° 0 mm 1 mps 663 mmHg 84%
    11:00 +5°C° 0 mm 2 mps 663 mmHg 83%
    12:00 +6°C° 0 mm 2 mps 663 mmHg 81%
    13:00 +6°C° 0 mm 2 mps 663 mmHg 80%
    14:00 +6°C° 0 mm 2 mps 663 mmHg 83%
    15:00 +5°C° 0 mm 2 mps 663 mmHg 86%
    16:00 +5°C° 0 mm 2 mps 663 mmHg 89%
    17:00 +4°C° 0.1 mm 3 mps 663 mmHg 89%
    18:00 +3°C° 0.1 mm 3 mps 663 mmHg 90%
    19:00 +3°C° 0.1 mm 3 mps 663 mmHg 91%
    20:00 +3°C° 0.6 mm 3 mps 664 mmHg 91%
    21:00 +4°C° 0.6 mm 3 mps 664 mmHg 92%
    22:00 +4°C° 0.6 mm 3 mps 664 mmHg 92%
    23:00 +4°C° 1.1 mm 3 mps 664 mmHg 92%

    Tomorrow, 20 November, Tuesday

    Time Temperature Precipitation Wind Pressure Humidity
    00:00 +4°C° 1.1 mm 3 mps 664 mmHg 93%
    01:00 +4°C° 1.1 mm 3 mps 664 mmHg 93%
    02:00 +4°C° 1.3 mm 3 mps 664 mmHg 93%
    03:00 +4°C° 1.3 mm 3 mps 663 mmHg 93%
    04:00 +4°C° 1.3 mm 3 mps 663 mmHg 94%
    05:00 +4°C° 1.3 mm 4 mps 663 mmHg 93%
    06:00 +4°C° 1.3 mm 4 mps 664 mmHg 93%
    07:00 +5°C° 1.3 mm 4 mps 664 mmHg 93%
    08:00 +5°C° 1.6 mm 4 mps 664 mmHg 93%
    09:00 +5°C° 1.6 mm 4 mps 664 mmHg 93%
    10:00 +6°C° 1.6 mm 4 mps 664 mmHg 93%
    11:00 +7°C° 2.5 mm 3 mps 664 mmHg 93%
    12:00 +7°C° 2.5 mm 3 mps 663 mmHg 93%
    13:00 +7°C° 2.5 mm 3 mps 663 mmHg 94%
    14:00 +7°C° 1.5 mm 3 mps 663 mmHg 94%
    15:00 +7°C° 1.5 mm 3 mps 663 mmHg 94%
    16:00 +7°C° 1.5 mm 3 mps 663 mmHg 93%
    17:00 +7°C° 0.9 mm 3 mps 663 mmHg 94%
    18:00 +7°C° 0.9 mm 3 mps 663 mmHg 94%
    19:00 +7°C° 0.9 mm 3 mps 663 mmHg 94%
    20:00 +7°C° 1 mm 3 mps 663 mmHg 94%
    21:00 +7°C° 1 mm 3 mps 663 mmHg 94%
    22:00 +7°C° 1 mm 2 mps 662 mmHg 94%
    23:00 +5°C° 0.8 mm 3 mps 662 mmHg 94%

    Day after tomorrow, 21 November, Wednesday

    Time Temperature Precipitation Wind Pressure Humidity
    00:00 +5°C° 0.8 mm 3 mps 662 mmHg 94%
    01:00 +5°C° 0.8 mm 3 mps 661 mmHg 95%
    02:00 +6°C° 1.6 mm 2 mps 661 mmHg 95%
    03:00 +6°C° 1.6 mm 2 mps 661 mmHg 95%
    04:00 +6°C° 1.6 mm 2 mps 661 mmHg 95%
    05:00 +6°C° 0.6 mm 2 mps 661 mmHg 95%
    06:00 +6°C° 0.6 mm 2 mps 661 mmHg 95%
    07:00 +6°C° 0.6 mm 2 mps 661 mmHg 96%
    08:00 +7°C° 0.2 mm 2 mps 662 mmHg 93%
    09:00 +7°C° 0.2 mm 2 mps 662 mmHg 90%
    10:00 +8°C° 0.2 mm 2 mps 663 mmHg 88%
    11:00 +8°C° 0.1 mm 2 mps 663 mmHg 85%
    12:00 +9°C° 0.1 mm 2 mps 663 mmHg 83%
    13:00 +9°C° 0.1 mm 2 mps 663 mmHg 81%
    14:00 +9°C° 0.3 mm 2 mps 663 mmHg 84%
    15:00 +8°C° 0.3 mm 2 mps 663 mmHg 88%
    16:00 +7°C° 0.3 mm 2 mps 663 mmHg 91%
    17:00 +7°C° 0.6 mm 2 mps 663 mmHg 92%
    18:00 +7°C° 0.6 mm 2 mps 663 mmHg 93%
    19:00 +7°C° 0.6 mm 2 mps 664 mmHg 94%
    20:00 +7°C° 0.5 mm 2 mps 664 mmHg 95%
    21:00 +7°C° 0.5 mm 2 mps 664 mmHg 95%
    22:00 +7°C° 0.5 mm 2 mps 665 mmHg 95%
    23:00 +8°C° 0.2 mm 1 mps 665 mmHg 95%

    22 November, Thursday

    Time Temperature Precipitation Wind Pressure Humidity
    00:00 +8°C° 0.2 mm 1 mps 665 mmHg 95%
    01:00 +8°C° 0.2 mm 1 mps 665 mmHg 96%
    02:00 +7°C° 0 mm 1 mps 665 mmHg 95%
    03:00 +7°C° 0 mm 1 mps 665 mmHg 95%
    04:00 +7°C° 0 mm 1 mps 665 mmHg 95%
    05:00 +7°C° 0 mm 1 mps 666 mmHg 95%
    06:00 +7°C° 0 mm 1 mps 666 mmHg 95%
    07:00 +7°C° 0 mm 1 mps 666 mmHg 95%
    08:00 +8°C° 0 mm 1 mps 667 mmHg 90%
    09:00 +9°C° 0 mm 1 mps 667 mmHg 86%
    10:00 +10°C° 0 mm 1 mps 668 mmHg 82%
    11:00 +10°C° 0.1 mm 1 mps 668 mmHg 79%
    12:00 +10°C° 0.1 mm 2 mps 668 mmHg 76%
    13:00 +10°C° 0.1 mm 2 mps 668 mmHg 73%
    14:00 +10°C° 0 mm 2 mps 668 mmHg 77%
    15:00 +10°C° 0 mm 1 mps 668 mmHg 80%
    16:00 +9°C° 0 mm 1 mps 668 mmHg 83%
    17:00 +8°C° 0 mm 1 mps 668 mmHg 85%
    18:00 +8°C° 0 mm 1 mps 668 mmHg 88%
    19:00 +7°C° 0 mm 1 mps 668 mmHg 90%
    20:00 +7°C° 0 mm 1 mps 669 mmHg 90%
    21:00 +6°C° 0 mm 1 mps 669 mmHg 90%
    22:00 +6°C° 0 mm 1 mps 669 mmHg 90%
    23:00 +6°C° 0 mm 1 mps 669 mmHg 89%

    23 November, Friday

    Time Temperature Precipitation Wind Pressure Humidity
    00:00 +6°C° 0 mm 1 mps 669 mmHg 89%
    01:00 +6°C° 0 mm 1 mps 669 mmHg 89%
    02:00 +6°C° 0 mm 1 mps 669 mmHg 89%
    03:00 +5°C° 0 mm 1 mps 669 mmHg 89%
    04:00 +5°C° 0 mm 1 mps 670 mmHg 89%
    05:00 +5°C° 0 mm 1 mps 670 mmHg 89%
    06:00 +5°C° 0 mm 1 mps 670 mmHg 89%
    07:00 +5°C° 0 mm 1 mps 670 mmHg 89%
    08:00 +7°C° 0 mm 1 mps 671 mmHg 83%
    09:00 +8°C° 0 mm 1 mps 672 mmHg 77%
    10:00 +9°C° 0 mm 1 mps 672 mmHg 72%
    11:00 +10°C° 0 mm 1 mps 672 mmHg 69%
    12:00 +10°C° 0 mm 1 mps 672 mmHg 66%
    13:00 +11°C° 0 mm 1 mps 672 mmHg 63%
    14:00 +10°C° 0 mm 1 mps 672 mmHg 67%
    15:00 +9°C° 0 mm 1 mps 672 mmHg 71%
    16:00 +9°C° 0 mm 1 mps 671 mmHg 75%
    17:00 +8°C° 0 mm 1 mps 672 mmHg 78%
    18:00 +7°C° 0 mm 1 mps 672 mmHg 80%
    19:00 +6°C° 0 mm 1 mps 672 mmHg 83%
    20:00 +6°C° 0 mm 1 mps 672 mmHg 84%
    21:00 +5°C° 0 mm 1 mps 672 mmHg 85%
    22:00 +5°C° 0 mm 1 mps 672 mmHg 85%
    23:00 +5°C° 0 mm 1 mps 672 mmHg 86%

    24 November, Saturday

    Time Temperature Precipitation Wind Pressure Humidity
    00:00 +5°C° 0 mm 1 mps 671 mmHg 86%
    01:00 +4°C° 0 mm 1 mps 671 mmHg 87%
    02:00 +4°C° 0 mm 1 mps 671 mmHg 87%
    03:00 +4°C° 0 mm 1 mps 671 mmHg 87%
    04:00 +4°C° 0 mm 1 mps 671 mmHg 87%
    05:00 +3°C° 0 mm 1 mps 671 mmHg 87%
    06:00 +3°C° 0 mm 1 mps 671 mmHg 87%
    07:00 +2°C° 0 mm 2 mps 671 mmHg 87%
    08:00 +5°C° 0 mm 1 mps 672 mmHg 79%
    09:00 +7°C° 0 mm 1 mps 672 mmHg 72%
    10:00 +9°C° 0 mm 1 mps 673 mmHg 65%
    11:00 +9°C° 0 mm 1 mps 672 mmHg 61%
    12:00 +10°C° 0 mm 1 mps 672 mmHg 57%
    13:00 +11°C° 0 mm 1 mps 672 mmHg 53%
    14:00 +10°C° 0 mm 1 mps 672 mmHg 58%
    15:00 +9°C° 0 mm 1 mps 671 mmHg 63%
    16:00 +7°C° 0 mm 0 mps 671 mmHg 67%
    17:00 +7°C° 0 mm 0 mps 671 mmHg 69%
    18:00 +6°C° 0 mm 0 mps 671 mmHg 70%
    19:00 +7°C° 0 mm 1 mps 671 mmHg 71%
    20:00 +7°C° 0 mm 1 mps 671 mmHg 74%
    21:00 +6°C° 0 mm 1 mps 671 mmHg 76%
    22:00 +6°C° 0 mm 1 mps 671 mmHg 78%
    23:00 +5°C° 0 mm 1 mps 671 mmHg 78%
    Show more